Back to catalog

DELTA 1 DEB

AliveSSO
NORAD 21284·DEBRIS·🇺🇸 United States

Launched Jun 12, 1975 from Vandenberg Space Force Base

Loading…

Next Passes (next 24 hours)

TLE

FreshSource: Space-Track

Epoch: Sep 14, 2026, 04:29 UTC

1 21284U 75052V   26257.18708198  .00000036  00000-0  16098-3 0  9996
2 21284  99.8284 331.9329 0077771 141.0512 246.1919 13.31385798717434

Track DELTA 1 DEB in real time with AllMySat

Download on the App Store